Time,TemperatureF,DewpointF,PressureIn,WindDirection,WindDirectionDegrees,WindSpeedMPH,WindSpeedGustMPH,Humidity,HourlyPrecipIn,Conditions,Clouds,dailyrainin,SoftwareType,DateUTC
2013-07-07 00:10:00,72.0,65.0,29.89,SSE,166,0.0,4.0,79,0.00,,,0.00,weatherlink.com 1.10,2013-07-07 04:10:00,
2013-07-07 00:25:00,72.0,66.0,29.90,SSE,166,0.0,1.0,80,0.00,,,0.00,weatherlink.com 1.10,2013-07-07 04:25:00,
2013-07-07 00:40:00,72.3,65.0,29.89,SSE,166,0.0,1.0,78,0.00,,,0.00,weatherlink.com 1.10,2013-07-07 04:40:00,
2013-07-07 00:55:00,72.2,66.0,29.89,SSE,166,0.0,0.0,82,0.00,,,0.00,weatherlink.com 1.10,2013-07-07 04:55:00,
2013-07-07 01:10:00,71.9,67.0,29.89,SSE,166,0.0,2.0,84,0.00,,,0.00,weatherlink.com 1.10,2013-07-07 05:10:00,
2013-07-07 01:26:00,71.6,67.0,29.89,SSE,166,0.0,0.0,85,0.00,,,0.00,weatherlink.com 1.10,2013-07-07 05:26:00,
2013-07-07 01:41:00,71.3,67.0,29.89,SSE,166,0.0,0.0,85,0.00,,,0.00,weatherlink.com 1.10,2013-07-07 05:41:00,
2013-07-07 01:56:00,70.9,67.0,29.89,SSE,166,0.0,0.0,86,0.00,,,0.00,weatherlink.com 1.10,2013-07-07 05:56:00,
2013-07-07 02:11:00,70.5,67.0,29.89,SSE,166,0.0,0.0,87,0.00,,,0.00,weatherlink.com 1.10,2013-07-07 06:11:00,
2013-07-07 02:26:00,70.0,66.0,29.89,SSE,166,0.0,0.0,88,0.00,,,0.00,weatherlink.com 1.10,2013-07-07 06:26:00,
2013-07-07 02:41:00,69.6,66.0,29.89,SSE,166,0.0,0.0,89,0.00,,,0.00,weatherlink.com 1.10,2013-07-07 06:41:00,
2013-07-07 02:56:00,69.4,66.0,29.89,SSE,166,0.0,0.0,89,0.00,,,0.00,weatherlink.com 1.10,2013-07-07 06:56:00,
2013-07-07 03:11:00,69.1,66.0,29.88,SSE,166,0.0,0.0,89,0.00,,,0.00,weatherlink.com 1.10,2013-07-07 07:11:00,
2013-07-07 03:26:00,68.8,66.0,29.88,SSE,166,0.0,0.0,89,0.00,,,0.00,weatherlink.com 1.10,2013-07-07 07:26:00,
2013-07-07 03:41:00,68.4,65.0,29.88,SSE,166,0.0,0.0,90,0.00,,,0.00,weatherlink.com 1.10,2013-07-07 07:41:00,
2013-07-07 03:56:00,68.0,65.0,29.88,SSE,166,0.0,0.0,90,0.00,,,0.00,weatherlink.com 1.10,2013-07-07 07:56:00,
2013-07-07 04:11:00,67.6,65.0,29.88,SSE,166,0.0,0.0,91,0.00,,,0.00,weatherlink.com 1.10,2013-07-07 08:11:00,
2013-07-07 04:26:00,67.4,65.0,29.88,SSE,166,0.0,1.0,92,0.00,,,0.00,weatherlink.com 1.10,2013-07-07 08:26:00,
2013-07-07 04:41:00,67.1,65.0,29.88,SSE,166,0.0,0.0,93,0.00,,,0.00,weatherlink.com 1.10,2013-07-07 08:41:00,
2013-07-07 04:56:00,66.8,65.0,29.88,SSE,166,0.0,0.0,93,0.00,,,0.00,weatherlink.com 1.10,2013-07-07 08:56:00,
2013-07-07 05:11:00,66.6,65.0,29.88,SSE,166,0.0,0.0,93,0.00,,,0.00,weatherlink.com 1.10,2013-07-07 09:11:00,
2013-07-07 05:26:00,66.6,65.0,29.88,SSE,166,0.0,0.0,94,0.00,,,0.00,weatherlink.com 1.10,2013-07-07 09:26:00,
2013-07-07 05:41:00,66.7,65.0,29.88,SSE,166,0.0,0.0,94,0.00,,,0.00,weatherlink.com 1.10,2013-07-07 09:41:00,
2013-07-07 05:56:00,67.0,65.0,29.88,SSE,166,0.0,0.0,94,0.00,,,0.00,weatherlink.com 1.10,2013-07-07 09:56:00,
2013-07-07 06:11:00,67.8,66.0,29.88,NNE,19,1.0,3.0,94,0.04,,,0.04,weatherlink.com 1.10,2013-07-07 10:11:00,
2013-07-07 06:26:00,68.3,67.0,29.89,NNE,19,1.0,2.0,94,0.13,,,0.13,weatherlink.com 1.10,2013-07-07 10:26:00,
2013-07-07 06:41:00,68.5,67.0,29.89,NNE,19,0.0,1.0,94,0.18,,,0.18,weatherlink.com 1.10,2013-07-07 10:41:00,
2013-07-07 06:56:00,68.7,67.0,29.89,NNE,19,0.0,1.0,94,0.18,,,0.18,weatherlink.com 1.10,2013-07-07 10:56:00,
2013-07-07 07:11:00,69.6,67.0,29.89,NNE,19,0.0,0.0,92,0.13,,,0.18,weatherlink.com 1.10,2013-07-07 11:11:00,
2013-07-07 07:26:00,70.9,68.0,29.89,NNE,19,0.0,2.0,89,0.05,,,0.18,weatherlink.com 1.10,2013-07-07 11:26:00,
2013-07-07 07:41:00,72.5,69.0,29.89,NNE,19,0.0,1.0,88,0.00,,,0.18,weatherlink.com 1.10,2013-07-07 11:41:00,
2013-07-07 07:56:00,73.7,70.0,29.89,NNE,20,0.0,1.0,88,0.00,,,0.18,weatherlink.com 1.10,2013-07-07 11:56:00,
2013-07-07 08:11:00,75.0,68.0,29.89,WSW,242,1.0,4.0,78,0.00,,,0.18,weatherlink.com 1.10,2013-07-07 12:11:00,
2013-07-07 08:26:00,77.0,70.0,29.89,ESE,119,1.0,4.0,78,0.00,,,0.18,weatherlink.com 1.10,2013-07-07 12:26:00,
2013-07-07 08:41:00,79.5,70.0,29.89,SE,146,0.0,6.0,72,0.00,,,0.18,weatherlink.com 1.10,2013-07-07 12:41:00,
2013-07-07 08:56:00,81.1,69.0,29.88,SSE,153,2.0,4.0,67,0.00,,,0.18,weatherlink.com 1.10,2013-07-07 12:56:00,
2013-07-07 09:11:00,83.1,71.0,29.88,ESE,121,4.0,4.0,67,0.00,,,0.18,weatherlink.com 1.10,2013-07-07 13:11:00,
2013-07-07 09:27:00,85.1,68.0,29.88,South,187,0.0,6.0,56,0.00,,,0.18,weatherlink.com 1.10,2013-07-07 13:27:00,
2013-07-07 09:42:00,87.4,69.0,29.88,ESE,107,1.0,6.0,54,0.00,,,0.18,weatherlink.com 1.10,2013-07-07 13:42:00,
2013-07-07 09:57:00,88.8,68.0,29.87,WSW,256,2.0,6.0,51,0.00,,,0.18,weatherlink.com 1.10,2013-07-07 13:57:00,
2013-07-07 10:12:00,88.9,68.0,29.87,North,5,4.0,7.0,51,0.00,,,0.18,weatherlink.com 1.10,2013-07-07 14:12:00,
2013-07-07 10:27:00,88.5,68.0,29.88,WNW,284,1.0,6.0,50,0.00,,,0.18,weatherlink.com 1.10,2013-07-07 14:27:00,
2013-07-07 10:42:00,87.8,69.0,29.88,SW,214,0.0,4.0,53,0.00,,,0.18,weatherlink.com 1.10,2013-07-07 14:42:00,
2013-07-07 10:57:00,87.2,69.0,29.88,North,355,2.0,4.0,55,0.00,,,0.18,weatherlink.com 1.10,2013-07-07 14:57:00,
2013-07-07 11:12:00,86.3,69.0,29.87,NNW,346,1.0,6.0,56,0.00,,,0.18,weatherlink.com 1.10,2013-07-07 15:12:00,
2013-07-07 11:27:00,86.3,70.0,29.88,North,5,0.0,3.0,58,0.00,,,0.18,weatherlink.com 1.10,2013-07-07 15:27:00,
2013-07-07 11:42:00,86.9,69.0,29.88,NNW,342,2.0,8.0,56,0.00,,,0.18,weatherlink.com 1.10,2013-07-07 15:42:00,
2013-07-07 11:57:00,88.1,70.0,29.87,North,355,2.0,5.0,55,0.00,,,0.18,weatherlink.com 1.10,2013-07-07 15:57:00,
2013-07-07 12:12:00,89.0,71.0,29.87,NNW,346,0.0,4.0,56,0.00,,,0.18,weatherlink.com 1.10,2013-07-07 16:12:00,
2013-07-07 12:27:00,90.2,70.0,29.87,SW,234,4.0,6.0,52,0.00,,,0.18,weatherlink.com 1.10,2013-07-07 16:27:00,
2013-07-07 12:42:00,91.0,70.0,29.86,NE,51,0.0,5.0,51,0.00,,,0.18,weatherlink.com 1.10,2013-07-07 16:42:00,
2013-07-07 12:57:00,91.8,73.0,29.86,WSW,244,0.0,4.0,54,0.00,,,0.18,weatherlink.com 1.10,2013-07-07 16:57:00,
2013-07-07 13:12:00,92.9,72.0,29.86,SSW,197,2.0,4.0,51,0.00,,,0.18,weatherlink.com 1.10,2013-07-07 17:12:00,
2013-07-07 13:27:00,93.1,73.0,29.85,NNE,15,4.0,8.0,52,0.01,,,0.19,weatherlink.com 1.10,2013-07-07 17:27:00,
2013-07-07 13:42:00,93.1,72.0,29.85,SSW,200,2.0,5.0,51,0.01,,,0.19,weatherlink.com 1.10,2013-07-07 17:42:00,
2013-07-07 13:57:00,93.2,75.0,29.84,North,9,0.0,3.0,55,0.01,,,0.19,weatherlink.com 1.10,2013-07-07 17:57:00,
2013-07-07 14:12:00,92.1,75.0,29.84,WSW,254,0.0,4.0,57,0.01,,,0.19,weatherlink.com 1.10,2013-07-07 18:12:00,
2013-07-07 14:27:00,93.3,73.0,29.82,SE,130,0.0,9.0,51,0.00,,,0.19,weatherlink.com 1.10,2013-07-07 18:27:00,
2013-07-07 14:42:00,93.8,74.0,29.82,SE,134,3.0,7.0,53,0.00,,,0.19,weatherlink.com 1.10,2013-07-07 18:42:00,
2013-07-07 14:57:00,94.7,75.0,29.81,South,180,2.0,5.0,53,0.00,,,0.19,weatherlink.com 1.10,2013-07-07 18:57:00,
2013-07-07 15:12:00,95.7,74.0,29.80,SSW,199,5.0,7.0,49,0.00,,,0.19,weatherlink.com 1.10,2013-07-07 19:12:00,
2013-07-07 15:27:00,95.5,75.0,29.80,West,263,2.0,4.0,52,0.00,,,0.19,weatherlink.com 1.10,2013-07-07 19:27:00,
2013-07-07 15:42:00,94.7,74.0,29.80,South,189,2.0,6.0,51,0.00,,,0.19,weatherlink.com 1.10,2013-07-07 19:42:00,
2013-07-07 15:57:00,94.2,74.0,29.80,SSW,193,1.0,5.0,52,0.00,,,0.19,weatherlink.com 1.10,2013-07-07 19:57:00,
2013-07-07 16:12:00,93.7,75.0,29.80,ESE,123,1.0,5.0,54,0.00,,,0.19,weatherlink.com 1.10,2013-07-07 20:12:00,
2013-07-07 16:28:00,92.5,77.0,29.79,South,173,1.0,4.0,60,0.00,,,0.19,weatherlink.com 1.10,2013-07-07 20:28:00,
2013-07-07 16:43:00,91.0,76.0,29.80,SE,136,0.0,3.0,61,0.00,,,0.19,weatherlink.com 1.10,2013-07-07 20:43:00,
2013-07-07 16:58:00,89.2,77.0,29.80,SE,145,2.0,2.0,68,0.00,,,0.19,weatherlink.com 1.10,2013-07-07 20:58:00,
2013-07-07 17:13:00,87.8,77.0,29.79,SE,139,1.0,2.0,71,0.00,,,0.19,weatherlink.com 1.10,2013-07-07 21:13:00,
2013-07-07 17:28:00,87.5,78.0,29.79,SSW,207,0.0,2.0,73,0.00,,,0.19,weatherlink.com 1.10,2013-07-07 21:28:00,
2013-07-07 17:43:00,87.3,78.0,29.78,SSW,192,1.0,2.0,73,0.00,,,0.19,weatherlink.com 1.10,2013-07-07 21:43:00,
2013-07-07 17:58:00,86.6,78.0,29.78,ESE,107,2.0,3.0,75,0.00,,,0.19,weatherlink.com 1.10,2013-07-07 21:58:00,
2013-07-07 18:13:00,86.6,77.0,29.78,SSW,196,0.0,2.0,72,0.00,,,0.19,weatherlink.com 1.10,2013-07-07 22:13:00,
2013-07-07 18:28:00,86.7,77.0,29.78,SSW,205,1.0,4.0,72,0.00,,,0.19,weatherlink.com 1.10,2013-07-07 22:28:00,
2013-07-07 18:43:00,86.3,77.0,29.77,SSE,155,0.0,6.0,73,0.00,,,0.19,weatherlink.com 1.10,2013-07-07 22:43:00,
2013-07-07 18:58:00,85.5,76.0,29.77,SSW,204,2.0,6.0,72,0.00,,,0.19,weatherlink.com 1.10,2013-07-07 22:58:00,
2013-07-07 19:13:00,85.1,75.0,29.78,South,188,2.0,4.0,72,0.00,,,0.19,weatherlink.com 1.10,2013-07-07 23:13:00,
2013-07-07 19:28:00,84.4,75.0,29.78,SSW,192,2.0,7.0,73,0.00,,,0.19,weatherlink.com 1.10,2013-07-07 23:28:00,
2013-07-07 19:43:00,83.8,75.0,29.78,West,267,0.0,4.0,74,0.00,,,0.19,weatherlink.com 1.10,2013-07-07 23:43:00,
2013-07-07 19:58:00,83.3,74.0,29.79,SSW,212,6.0,6.0,74,0.00,,,0.19,weatherlink.com 1.10,2013-07-07 23:58:00,
2013-07-07 20:13:00,82.5,75.0,29.79,ESE,116,2.0,2.0,77,0.00,,,0.19,weatherlink.com 1.10,2013-07-08 00:13:00,
2013-07-07 20:28:00,81.6,74.0,29.79,SSE,147,0.0,2.0,77,0.00,,,0.19,weatherlink.com 1.10,2013-07-08 00:28:00,
2013-07-07 20:43:00,80.8,74.0,29.80,SSE,148,0.0,0.0,80,0.00,,,0.19,weatherlink.com 1.10,2013-07-08 00:43:00,
2013-07-07 20:58:00,79.8,74.0,29.80,SSE,148,0.0,0.0,82,0.00,,,0.19,weatherlink.com 1.10,2013-07-08 00:58:00,
2013-07-07 21:13:00,79.1,74.0,29.80,SSE,148,0.0,0.0,83,0.00,,,0.19,weatherlink.com 1.10,2013-07-08 01:13:00,
2013-07-07 21:28:00,78.5,74.0,29.81,SSE,148,0.0,0.0,85,0.00,,,0.19,weatherlink.com 1.10,2013-07-08 01:28:00,
2013-07-07 21:43:00,78.0,74.0,29.80,SSE,148,0.0,1.0,86,0.00,,,0.19,weatherlink.com 1.10,2013-07-08 01:43:00,
2013-07-07 21:58:00,77.6,73.0,29.81,SSE,150,0.0,1.0,84,0.00,,,0.19,weatherlink.com 1.10,2013-07-08 01:58:00,
2013-07-07 22:13:00,77.9,72.0,29.80,South,177,1.0,3.0,81,0.00,,,0.19,weatherlink.com 1.10,2013-07-08 02:13:00,
2013-07-07 22:28:00,78.3,72.0,29.81,SE,142,0.0,2.0,80,0.00,,,0.19,weatherlink.com 1.10,2013-07-08 02:28:00,
2013-07-07 22:43:00,77.9,72.0,29.81,SE,124,0.0,2.0,82,0.00,,,0.19,weatherlink.com 1.10,2013-07-08 02:43:00,
2013-07-07 22:58:00,77.5,72.0,29.81,SE,124,0.0,1.0,83,0.00,,,0.19,weatherlink.com 1.10,2013-07-08 02:58:00,
2013-07-07 23:13:00,77.0,72.0,29.81,SSW,192,0.0,3.0,84,0.00,,,0.19,weatherlink.com 1.10,2013-07-08 03:13:00,
2013-07-07 23:28:00,76.6,72.0,29.80,SSW,192,0.0,0.0,85,0.00,,,0.19,weatherlink.com 1.10,2013-07-08 03:28:00,
2013-07-07 23:43:00,76.2,71.0,29.80,SSW,192,0.0,0.0,85,0.00,,,0.19,weatherlink.com 1.10,2013-07-08 03:43:00,
2013-07-07 23:58:00,75.8,71.0,29.80,SSW,192,0.0,-999.0,86,-99.99,,,0.19,weatherlink.com 1.10,2013-07-08 03:58:00,